カタログに戻る

PAYLOAD C

運用中軍事SSO
NORAD 39210·PAYLOAD·🇨🇳 China

打ち上げ Jul 19, 2013 から Taiyuan Satellite Launch Center

Loading…

次のパス (今後24時間)

TLE

最新Source: Space-Track

元期: Sep 14, 2026, 15:29 UTC

1 39210U 13037C   26257.64568127  .00000405  00000-0  73188-4 0  9990
2 39210  98.1096 260.2979 0005256 212.3338 147.7548 14.71595163707489

AllMySatでPAYLOAD Cをリアルタイム追跡

Download on the App Store